sat.trackr.live / text

‹ back to catalog

STARLINK-3502

NORAD 51746 · 2022-016AJ

PAYLOAD ACTIVE UNKNOWN

§ Identity

Operator
Country
US
Launch date
2022-02-21
Launch site
AFETR
Launch vehicle
Mass (kg)
RCS (m²)

Purposes: comms

External: N2YO · Heavens-Above · Gunter

§ Orbital elements

Epoch: 2026-05-24T19:50:01.288320Z

Period
95.44 min
Inclination
53.2141°
Eccentricity
0.0001358
Mean motion
15.08847531 rev/d
Perigee alt
538.8 km
Apogee alt
540.7 km
Semi-major
6,917.9 km
B*
-3.7559e-5
RAAN
327.3400°
Arg perigee
95.0630°
Mean anomaly
265.0518°
Rev number
23,519

§ Raw data

STARLINK-35021 51746U 22016AJ  26144.82640380 -.00000886  00000+0 -37559-4 0  99982 51746  53.2141 327.3400 0001358  95.0630 265.0518 15.08847531235199

JSON: /api/v1/satellites/51746 · /tle

For live sub-satellite position, see the globe view (requires WebGL).

§ Visibility from observer

Set your observer location to see the next 7 days of passes ≥ 10°. The values pass through the URL so the page stays shareable.

No JS? Fill the form by hand. The geolocation button needs JavaScript.